Retour au catalogue

SL-19 DEB

ActifUNKNOWN
NORAD 23484·DEBRIS·🇷🇺 Russia

Lancé Dec 26, 1994 depuis Baikonur Cosmodrome

Loading…

Prochains Passages (prochaines 24 heures)

TLE

FraisSource: Space-Track

Époque: Sep 14, 2026, 08:10 UTC

1 23484U 94085G   26257.34047043 -.00000601  00000-0 -16229-1 0  9994
2 23484  64.7378  15.6695 0225706 117.6970 274.9125 11.23041123297852

Suivez SL-19 DEB en temps réel avec AllMySat

Download on the App Store